Hourly Data Report for July 06, 2022

VICTORIA UNIVERSITY CS
BRITISH COLUMBIA
Current Station Operator: ECCC - MSC

48°27'25.200" N
123°18'16.600" W
60.10 m
1018598
71783
WYJ

Download Data

Hourly Data (July 2022)
Hourly Data Report for July 6, 2022
TIME
LST
Temp Definition
°C
Dew Point Definition
°C
Rel Hum Definition
%
Precip. Amount Definition
mm

Wind Dir Definition
10's deg

Wind Spd Definition
km/h
Visibility Definition
km
Stn Press Definition
kPa
Hmdx Definition


Wind Chill Definition


Weather Definition


00:00 14.8 13.4 92 0.0 5 3   100.54     LegendNANA
01:00 13.2 11.8 91 0.0   0   100.55     LegendNANA
02:00 13.0 11.8 93 0.0 6 2   100.55     LegendNANA
03:00 12.4 11.4 94 0.0 36 4   100.58     LegendNANA
04:00 11.6 10.5 93 0.0 8 3   100.58     LegendNANA
05:00 11.4 10.6 95 0.0 8 2   100.60     LegendNANA
06:00 12.1 11.0 93 0.0 5 2   100.62     LegendNANA
07:00 13.2 11.5 89 0.0 4 2   100.63     LegendNANA
08:00 15.4 12.8 84 0.0 10 3   100.65     LegendNANA
09:00 15.5 12.3 81 0.0 11 3   100.67     LegendNANA
10:00 17.9 13.0 73 0.0 1 7   100.66     LegendNANA
11:00 18.2 13.3 73 0.0 34 5   100.68     LegendNANA
12:00 15.2 12.1 82 0.0 10 2   100.67     LegendNANA
13:00 19.5 14.6 73 0.0 18 4   100.65     LegendNANA
14:00 19.8 13.8 68 0.0 21 5   100.66     LegendNANA
15:00 21.2 13.8 63 0.0 20 6   100.64     LegendNANA
16:00 20.2 14.7 70 0.0 15 7   100.63     LegendNANA
17:00 18.3 13.3 72 0.0 23 5   100.65     LegendNANA
18:00 18.1 13.5 74 0.0 22 5   100.64     LegendNANA
19:00 17.6 13.7 78 0.0 23 7   100.65     LegendNANA
20:00 16.5 14.0 85 0.0 24 6   100.68     LegendNANA
21:00 16.1 14.0 87 0.0 24 3   100.71     LegendNANA
22:00 15.3 13.3 88 0.0 23 6   100.72     LegendNANA
23:00 14.9 13.2 90 0.0 26 4   100.69     LegendNANA

Notes on Data Quality.

Legend

  • E = Estimated
  • M = Missing
  • NA = Not Available*
  • [empty] = Indicates an unobserved value
Date modified: